| time (UTC) | temp F | wind direction | speed MPH | gust MPH | rain 1hr in | rain 24hr in | rain mn in | humidity % | barometer mb |
| 20260506173511 | 59 | 113 | 1.0 | 4.0 | 0.00 | 0.00 | 0.00 | 46 | 1013.4 |
| 20260506173039 | 58 | 88 | 2.0 | 4.0 | 0.00 | 0.00 | 0.00 | 45 | 1013.5 |
| 20260506172511 | 59 | 129 | 0.0 | 4.0 | 0.00 | 0.00 | 0.00 | 47 | 1013.5 |
| 20260506172010 | 58 | 145 | 0.0 | 4.0 | 0.00 | 0.00 | 0.00 | 49 | 1013.7 |
| 20260506171534 | 58 | 79 | 2.0 | 6.0 | 0.00 | 0.00 | 0.00 | 48 | 1013.7 |
| 20260506171010 | 57 | 0 | 1.0 | 6.0 | 0.00 | 0.00 | 0.00 | 47 | 1013.7 |
| 20260506170513 | 57 | 181 | 0.0 | 3.0 | 0.00 | 0.00 | 0.00 | 49 | 1013.9 |
| 20260506170028 | 56 | 166 | 1.0 | 3.0 | 0.00 | 0.00 | 0.00 | 51 | 1014.0 |
| 20260506165510 | 55 | 87 | 1.0 | 3.0 | 0.00 | 0.00 | 0.00 | 49 | 1014.0 |
| 20260506165010 | 56 | 0 | 0.0 | 4.0 | 0.00 | 0.00 | 0.00 | 51 | 1014.1 |
| 20260506164530 | 55 | 167 | 1.0 | 4.0 | 0.00 | 0.00 | 0.00 | 49 | 1014.1 |
| 20260506164009 | 55 | 191 | 1.0 | 3.0 | 0.00 | 0.00 | 0.00 | 52 | 1014.2 |
| 20260506163511 | 55 | 117 | 0.0 | 3.0 | 0.00 | 0.00 | 0.00 | 51 | 1014.2 |
| 20260506163042 | 55 | 0 | 0.0 | 3.0 | 0.00 | 0.00 | 0.00 | 53 | 1014.3 |
| 20260506162511 | 54 | 149 | 1.0 | 3.0 | 0.00 | 0.00 | 0.00 | 55 | 1014.3 |
| 20260506162014 | 54 | 135 | 0.0 | 2.0 | 0.00 | 0.00 | 0.00 | 54 | 1014.2 |
| 20260506161528 | 53 | 0 | 0.0 | 3.0 | 0.00 | 0.00 | 0.00 | 51 | 1014.3 |
| 20260506161011 | 53 | 0 | 1.0 | 3.0 | 0.00 | 0.00 | 0.00 | 56 | 1014.3 |
| 20260506160509 | 52 | 0 | 1.0 | 3.0 | 0.00 | 0.00 | 0.00 | 57 | 1014.3 |
| 20260506160032 | 52 | 0 | 0.0 | 3.0 | 0.00 | 0.00 | 0.00 | 57 | 1014.4 |
| 20260506155512 | 52 | 148 | 1.0 | 3.0 | 0.00 | 0.00 | 0.00 | 59 | 1014.5 |
| 20260506155009 | 52 | 0 | 0.0 | 2.0 | 0.00 | 0.00 | 0.00 | 57 | 1014.6 |
| 20260506154537 | 51 | 0 | 0.0 | 3.0 | 0.00 | 0.00 | 0.00 | 59 | 1014.6 |
| 20260506154010 | 50 | 160 | 1.0 | 3.0 | 0.00 | 0.00 | 0.00 | 61 | 1014.7 |
| 20260506153509 | 51 | 0 | 0.0 | 0.0 | 0.00 | 0.00 | 0.00 | 59 | 1014.7 |
| 20260506153032 | 50 | 0 | 0.0 | 0.0 | 0.00 | 0.00 | 0.00 | 61 | 1014.7 |
| 20260506152515 | 50 | 0 | 0.0 | 0.0 | 0.00 | 0.00 | 0.00 | 63 | 1014.8 |
| 20260506152014 | 49 | 0 | 0.0 | 0.0 | 0.00 | 0.00 | 0.00 | 60 | 1014.9 |
| 20260506151538 | 49 | 0 | 0.0 | 1.0 | 0.00 | 0.00 | 0.00 | 60 | 1014.9 |
| 20260506151009 | 49 | 0 | 0.0 | 1.0 | 0.00 | 0.00 | 0.00 | 61 | 1015.0 |
| 20260506150513 | 49 | 0 | 0.0 | 3.0 | 0.00 | 0.00 | 0.00 | 60 | 1015.0 |
| 20260506150028 | 49 | 153 | 1.0 | 3.0 | 0.00 | 0.00 | 0.00 | 63 | 1015.1 |
| 20260506145512 | 49 | 0 | 0.0 | 0.0 | 0.00 | 0.00 | 0.00 | 63 | 1015.1 |
| 20260506145011 | 48 | 0 | 0.0 | 0.0 | 0.00 | 0.00 | 0.00 | 63 | 1015.1 |
| 20260506144529 | 48 | 0 | 0.0 | 0.0 | 0.00 | 0.00 | 0.00 | 64 | 1015.1 |
| 20260506144010 | 48 | 0 | 0.0 | 0.0 | 0.00 | 0.00 | 0.00 | 66 | 1015.0 |
| 20260506143510 | 47 | 0 | 0.0 | 0.0 | 0.00 | 0.00 | 0.00 | 62 | 1015.0 |
| 20260506143032 | 47 | 0 | 0.0 | 0.0 | 0.00 | 0.00 | 0.00 | 65 | 1015.0 |
| 20260506142510 | 47 | 0 | 0.0 | 0.0 | 0.00 | 0.00 | 0.00 | 68 | 1015.0 |
| 20260506142010 | 46 | 0 | 0.0 | 0.0 | 0.00 | 0.00 | 0.00 | 73 | 1015.0 |
| 20260506141529 | 45 | 0 | 0.0 | 0.0 | 0.00 | 0.00 | 0.00 | 73 | 1015.0 |
| 20260506141016 | 44 | 0 | 0.0 | 0.0 | 0.00 | 0.00 | 0.00 | 76 | 1015.0 |
| 20260506140511 | 43 | 0 | 0.0 | 0.0 | 0.00 | 0.00 | 0.00 | 76 | 1014.9 |
| 20260506140033 | 43 | 0 | 0.0 | 0.0 | 0.00 | 0.00 | 0.00 | 76 | 1015.0 |
| 20260506135514 | 42 | 0 | 0.0 | 0.0 | 0.00 | 0.00 | 0.00 | 78 | 1015.0 |
| 20260506135009 | 41 | 0 | 0.0 | 0.0 | 0.00 | 0.00 | 0.00 | 80 | 1014.9 |
| 20260506134542 | 40 | 0 | 0.0 | 0.0 | 0.00 | 0.00 | 0.00 | 81 | 1014.9 |
| 20260506134017 | 40 | 0 | 0.0 | 0.0 | 0.00 | 0.00 | 0.00 | 81 | 1014.9 |
| 20260506133508 | 39 | 0 | 0.0 | 0.0 | 0.00 | 0.00 | 0.00 | 83 | 1015.0 |
| 20260506133029 | 38 | 0 | 0.0 | 0.0 | 0.00 | 0.00 | 0.00 | 86 | 1015.0 |
| 20260506132513 | 37 | 0 | 0.0 | 0.0 | 0.00 | 0.00 | 0.00 | 87 | 1014.9 |
| 20260506132010 | 36 | 0 | 0.0 | 0.0 | 0.00 | 0.00 | 0.00 | 88 | 1014.9 |
| 20260506131535 | 36 | 0 | 0.0 | 0.0 | 0.00 | 0.00 | 0.00 | 86 | 1014.9 |
| 20260506131013 | 36 | 0 | 0.0 | 0.0 | 0.00 | 0.00 | 0.00 | 88 | 1014.9 |
| 20260506130512 | 35 | 0 | 0.0 | 0.0 | 0.00 | 0.00 | 0.00 | 88 | 1015.0 |
| 20260506130030 | 35 | 0 | 0.0 | 0.0 | 0.00 | 0.00 | 0.00 | 88 | 1014.9 |
| 20260506125509 | 35 | 0 | 0.0 | 0.0 | 0.00 | 0.00 | 0.00 | 87 | 1014.9 |
| 20260506125007 | 35 | 0 | 0.0 | 0.0 | 0.00 | 0.00 | 0.00 | 85 | 1014.8 |
| 20260506124528 | 37 | 0 | 0.0 | 0.0 | 0.00 | 0.00 | 0.00 | 84 | 1014.9 |
| 20260506124009 | 37 | 0 | 0.0 | 0.0 | 0.00 | 0.00 | 0.00 | 84 | 1014.8 |
| 20260506123510 | 37 | 0 | 0.0 | 0.0 | 0.00 | 0.00 | 0.00 | 85 | 1014.8 |
| 20260506123028 | 36 | 0 | 0.0 | 0.0 | 0.00 | 0.00 | 0.00 | 87 | 1014.8 |
| 20260506122509 | 35 | 0 | 0.0 | 0.0 | 0.00 | 0.00 | 0.00 | 87 | 1014.7 |
| 20260506122010 | 36 | 0 | 0.0 | 0.0 | 0.00 | 0.00 | 0.00 | 86 | 1014.8 |
| 20260506121527 | 36 | 0 | 0.0 | 0.0 | 0.00 | 0.00 | 0.00 | 86 | 1014.6 |
| 20260506121009 | 37 | 0 | 0.0 | 0.0 | 0.00 | 0.00 | 0.00 | 82 | 1014.7 |
| 20260506120507 | 38 | 0 | 0.0 | 0.0 | 0.00 | 0.00 | 0.00 | 79 | 1014.6 |
| 20260506120028 | 38 | 0 | 0.0 | 0.0 | 0.00 | 0.00 | 0.00 | 82 | 1014.7 |
| 20260506115510 | 36 | 0 | 0.0 | 0.0 | 0.00 | 0.00 | 0.00 | 85 | 1014.6 |
| 20260506115009 | 37 | 0 | 0.0 | 0.0 | 0.00 | 0.00 | 0.00 | 85 | 1014.6 |
| 20260506114528 | 37 | 0 | 0.0 | 0.0 | 0.00 | 0.00 | 0.00 | 84 | 1014.6 |
| 20260506114007 | 36 | 0 | 0.0 | 0.0 | 0.00 | 0.00 | 0.00 | 85 | 1014.6 |
| 20260506113509 | 37 | 0 | 0.0 | 0.0 | 0.00 | 0.00 | 0.00 | 82 | 1014.7 |
| 20260506113026 | 37 | 0 | 0.0 | 0.0 | 0.00 | 0.00 | 0.00 | 83 | 1014.6 |
| 20260506112509 | 37 | 0 | 0.0 | 0.0 | 0.00 | 0.00 | 0.00 | 82 | 1014.7 |
| 20260506112009 | 39 | 0 | 0.0 | 0.0 | 0.00 | 0.00 | 0.00 | 78 | 1014.7 |
| 20260506111530 | 39 | 0 | 0.0 | 0.0 | 0.00 | 0.00 | 0.00 | 79 | 1014.7 |
| 20260506111009 | 38 | 0 | 0.0 | 0.0 | 0.00 | 0.00 | 0.00 | 81 | 1014.7 |
| 20260506110510 | 38 | 0 | 0.0 | 0.0 | 0.00 | 0.00 | 0.00 | 82 | 1014.7 |
| 20260506110030 | 38 | 0 | 0.0 | 0.0 | 0.00 | 0.00 | 0.00 | 80 | 1014.7 |
| 20260506105510 | 38 | 0 | 0.0 | 0.0 | 0.00 | 0.00 | 0.00 | 80 | 1014.8 |
| 20260506105013 | 39 | 0 | 0.0 | 0.0 | 0.00 | 0.00 | 0.00 | 79 | 1014.8 |
| 20260506104529 | 40 | 0 | 0.0 | 0.0 | 0.00 | 0.00 | 0.00 | 78 | 1014.6 |
| 20260506104012 | 39 | 0 | 0.0 | 0.0 | 0.00 | 0.00 | 0.00 | 80 | 1014.6 |
| 20260506103511 | 38 | 0 | 0.0 | 0.0 | 0.00 | 0.00 | 0.00 | 83 | 1014.6 |
| 20260506103027 | 39 | 0 | 0.0 | 0.0 | 0.00 | 0.00 | 0.00 | 79 | 1014.6 |
| 20260506102510 | 40 | 0 | 0.0 | 0.0 | 0.00 | 0.00 | 0.00 | 78 | 1014.5 |
| 20260506102009 | 40 | 0 | 0.0 | 0.0 | 0.00 | 0.00 | 0.00 | 76 | 1014.5 |
| 20260506101528 | 40 | 0 | 0.0 | 0.0 | 0.00 | 0.00 | 0.00 | 76 | 1014.4 |
| 20260506101010 | 40 | 0 | 0.0 | 0.0 | 0.00 | 0.00 | 0.00 | 79 | 1014.4 |
| 20260506100511 | 39 | 0 | 0.0 | 0.0 | 0.00 | 0.00 | 0.00 | 81 | 1014.4 |
| 20260506100031 | 38 | 0 | 0.0 | 0.0 | 0.00 | 0.00 | 0.00 | 81 | 1014.4 |
| 20260506095511 | 39 | 0 | 0.0 | 0.0 | 0.00 | 0.00 | 0.00 | 79 | 1014.4 |
| 20260506095011 | 39 | 0 | 0.0 | 0.0 | 0.00 | 0.00 | 0.00 | 79 | 1014.3 |
| 20260506094528 | 39 | 0 | 0.0 | 0.0 | 0.00 | 0.00 | 0.00 | 78 | 1014.4 |
| 20260506094010 | 41 | 0 | 0.0 | 0.0 | 0.00 | 0.00 | 0.00 | 76 | 1014.3 |
| 20260506093512 | 41 | 0 | 0.0 | 0.0 | 0.00 | 0.00 | 0.00 | 76 | 1014.3 |
| 20260506093029 | 41 | 0 | 0.0 | 0.0 | 0.00 | 0.00 | 0.00 | 75 | 1014.3 |
| 20260506092510 | 40 | 0 | 0.0 | 0.0 | 0.00 | 0.00 | 0.00 | 76 | 1014.4 |
| 20260506092011 | 41 | 0 | 0.0 | 0.0 | 0.00 | 0.00 | 0.00 | 76 | 1014.4 |
| 20260506091530 | 41 | 0 | 0.0 | 0.0 | 0.00 | 0.00 | 0.00 | 75 | 1014.4 |
| 20260506091015 | 40 | 0 | 0.0 | 0.0 | 0.00 | 0.00 | 0.00 | 76 | 1014.4 |
| 20260506090509 | 40 | 0 | 0.0 | 1.0 | 0.00 | 0.00 | 0.00 | 82 | 1014.4 |
| 20260506090029 | 40 | 0 | 0.0 | 2.0 | 0.00 | 0.00 | 0.00 | 78 | 1014.4 |
| 20260506085510 | 41 | 0 | 0.0 | 2.0 | 0.00 | 0.00 | 0.00 | 76 | 1014.4 |
| 20260506085009 | 42 | 0 | 0.0 | 2.0 | 0.00 | 0.00 | 0.00 | 73 | 1014.3 |
| 20260506084537 | 41 | 284 | 1.0 | 2.0 | 0.00 | 0.00 | 0.00 | 74 | 1014.2 |
| 20260506084010 | 41 | 0 | 0.0 | 2.0 | 0.00 | 0.00 | 0.00 | 74 | 1014.3 |
| 20260506083510 | 42 | 0 | 0.0 | 0.0 | 0.00 | 0.00 | 0.00 | 73 | 1014.3 |
| 20260506083032 | 42 | 0 | 0.0 | 1.0 | 0.00 | 0.00 | 0.00 | 73 | 1014.2 |
| 20260506082509 | 42 | 0 | 0.0 | 3.0 | 0.00 | 0.00 | 0.00 | 73 | 1014.3 |
| 20260506082011 | 42 | 277 | 1.0 | 3.0 | 0.00 | 0.00 | 0.00 | 73 | 1014.1 |
| 20260506081530 | 42 | 286 | 0.0 | 0.0 | 0.00 | 0.00 | 0.00 | 73 | 1014.1 |
| 20260506081013 | 42 | 0 | 0.0 | 1.0 | 0.00 | 0.00 | 0.00 | 74 | 1014.0 |
| 20260506080509 | 43 | 0 | 0.0 | 2.0 | 0.00 | 0.00 | 0.00 | 71 | 1014.0 |
| 20260506073514 | 43 | 0 | 0.0 | 3.0 | 0.00 | 0.00 | 0.00 | 71 | 1013.7 |
| 20260506073031 | 43 | 277 | 2.0 | 3.0 | 0.00 | 0.00 | 0.00 | 70 | 1013.6 |
| 20260506072510 | 43 | 0 | 0.0 | 0.0 | 0.00 | 0.00 | 0.00 | 71 | 1013.6 |
| 20260506072011 | 44 | 0 | 0.0 | 0.0 | 0.00 | 0.00 | 0.00 | 72 | 1013.5 |
| 20260506071531 | 45 | 0 | 0.0 | 0.0 | 0.00 | 0.00 | 0.00 | 69 | 1013.5 |
| 20260506071009 | 45 | 0 | 0.0 | 0.0 | 0.00 | 0.00 | 0.00 | 67 | 1013.5 |
| 20260506070510 | 45 | 0 | 0.0 | 0.0 | 0.00 | 0.00 | 0.00 | 67 | 1013.5 |
| 20260506062513 | 47 | 0 | 0.0 | 3.0 | 0.00 | 0.00 | 0.00 | 65 | 1013.3 |
| 20260506062013 | 47 | 302 | 2.0 | 3.0 | 0.00 | 0.00 | 0.00 | 65 | 1013.3 |
| 20260506061531 | 48 | 295 | 1.0 | 2.0 | 0.00 | 0.00 | 0.00 | 65 | 1013.2 |
| 20260506061010 | 48 | 295 | 1.0 | 2.0 | 0.00 | 0.00 | 0.00 | 62 | 1013.1 |
| 20260506060510 | 48 | 0 | 0.0 | 2.0 | 0.00 | 0.00 | 0.00 | 61 | 1013.0 |
| 20260506051009 | 49 | 341 | 0.0 | 2.0 | 0.00 | 0.00 | 0.00 | 60 | 1012.4 |
| 20260506050510 | 48 | 0 | 0.0 | 2.0 | 0.00 | 0.00 | 0.00 | 65 | 1012.4 |
| 20260506045011 | 50 | 0 | 0.0 | 0.0 | 0.00 | 0.00 | 0.00 | 63 | 1012.3 |
| 20260506044528 | 49 | 0 | 0.0 | 1.0 | 0.00 | 0.00 | 0.00 | 63 | 1012.3 |
| 20260506044009 | 50 | 0 | 0.0 | 3.0 | 0.00 | 0.00 | 0.00 | 66 | 1012.2 |
| 20260506043510 | 50 | 0 | 1.0 | 3.0 | 0.00 | 0.00 | 0.00 | 62 | 1012.1 |
| 20260506043031 | 51 | 283 | 2.0 | 3.0 | 0.00 | 0.00 | 0.00 | 61 | 1012.1 |
| 20260506042509 | 52 | 280 | 0.0 | 3.0 | 0.00 | 0.00 | 0.00 | 57 | 1012.0 |
| 20260506042010 | 52 | 1 | 0.0 | 3.0 | 0.00 | 0.00 | 0.00 | 55 | 1012.0 |
| 20260506041539 | 51 | 359 | 0.0 | 1.0 | 0.00 | 0.00 | 0.00 | 56 | 1012.0 |
| 20260506041008 | 51 | 0 | 0.0 | 2.0 | 0.00 | 0.00 | 0.00 | 63 | 1012.0 |
| 20260506040512 | 53 | 0 | 0.0 | 2.0 | 0.00 | 0.00 | 0.00 | 53 | 1011.8 |
| 20260506040032 | 53 | 0 | 0.0 | 0.0 | 0.00 | 0.00 | 0.00 | 53 | 1011.9 |
| 20260506035514 | 52 | 0 | 0.0 | 0.0 | 0.00 | 0.00 | 0.00 | 61 | 1011.8 |
| 20260506035014 | 51 | 0 | 0.0 | 3.0 | 0.00 | 0.00 | 0.00 | 67 | 1011.6 |
| 20260506034546 | 52 | 0 | 0.0 | 3.0 | 0.00 | 0.00 | 0.00 | 60 | 1011.4 |
| 20260506034013 | 52 | 0 | 0.0 | 3.0 | 0.00 | 0.00 | 0.00 | 58 | 1011.3 |
| 20260506033511 | 52 | 0 | 0.0 | 2.0 | 0.00 | 0.00 | 0.00 | 59 | 1011.3 |
| 20260506033030 | 53 | 0 | 0.0 | 2.0 | 0.00 | 0.00 | 0.00 | 59 | 1011.2 |
| 20260506032510 | 53 | 0 | 0.0 | 1.0 | 0.00 | 0.00 | 0.00 | 58 | 1011.2 |
| 20260506032011 | 54 | 0 | 0.0 | 2.0 | 0.00 | 0.00 | 0.00 | 56 | 1011.1 |
| 20260506031529 | 54 | 0 | 0.0 | 2.0 | 0.00 | 0.00 | 0.00 | 59 | 1011.0 |
| 20260506031011 | 54 | 0 | 0.0 | 2.0 | 0.00 | 0.00 | 0.00 | 57 | 1011.0 |
| 20260506030514 | 55 | 263 | 0.0 | 5.0 | 0.00 | 0.00 | 0.00 | 54 | 1011.1 |
| 20260506030029 | 56 | 304 | 1.0 | 5.0 | 0.00 | 0.00 | 0.00 | 55 | 1011.0 |
| 20260506025514 | 58 | 148 | 2.0 | 5.0 | 0.00 | 0.00 | 0.00 | 44 | 1010.9 |
| 20260506025011 | 59 | 352 | 3.0 | 5.0 | 0.00 | 0.00 | 0.00 | 45 | 1010.9 |
| 20260506024530 | 58 | 360 | 2.0 | 5.0 | 0.00 | 0.00 | 0.00 | 46 | 1010.9 |
| 20260506024008 | 58 | 244 | 1.0 | 4.0 | 0.00 | 0.00 | 0.00 | 47 | 1010.9 |
| 20260506023512 | 58 | 349 | 1.0 | 4.0 | 0.00 | 0.00 | 0.00 | 50 | 1010.9 |
| 20260506023030 | 58 | 333 | 2.0 | 4.0 | 0.00 | 0.00 | 0.00 | 49 | 1010.9 |
| 20260506022510 | 57 | 0 | 0.0 | 2.0 | 0.00 | 0.00 | 0.00 | 56 | 1010.8 |
| 20260506022012 | 57 | 0 | 0.0 | 0.0 | 0.00 | 0.00 | 0.00 | 54 | 1010.9 |
| 20260506021528 | 58 | 0 | 0.0 | 0.0 | 0.00 | 0.00 | 0.00 | 52 | 1010.9 |
| 20260506021010 | 58 | 0 | 0.0 | 0.0 | 0.00 | 0.00 | 0.00 | 49 | 1010.8 |
| 20260506020514 | 59 | 0 | 0.0 | 0.0 | 0.00 | 0.00 | 0.00 | 48 | 1010.8 |
| 20260506020028 | 59 | 0 | 0.0 | 0.0 | 0.00 | 0.00 | 0.00 | 46 | 1010.8 |
| 20260506015510 | 59 | 0 | 0.0 | 0.0 | 0.00 | 0.00 | 0.00 | 45 | 1010.8 |
| 20260506015012 | 59 | 0 | 0.0 | 0.0 | 0.00 | 0.00 | 0.00 | 49 | 1010.9 |
| 20260506014527 | 60 | 0 | 0.0 | 0.0 | 0.00 | 0.00 | 0.00 | 46 | 1010.8 |
| 20260506014009 | 60 | 0 | 0.0 | 0.0 | 0.00 | 0.00 | 0.00 | 43 | 1010.8 |
| 20260506013510 | 61 | 0 | 0.0 | 0.0 | 0.00 | 0.00 | 0.00 | 43 | 1010.8 |
| 20260506013041 | 61 | 0 | 0.0 | 0.0 | 0.00 | 0.00 | 0.00 | 44 | 1010.8 |
| 20260506012511 | 62 | 0 | 0.0 | 0.0 | 0.00 | 0.00 | 0.00 | 45 | 1010.9 |
| 20260506012012 | 62 | 0 | 0.0 | 0.0 | 0.00 | 0.00 | 0.00 | 43 | 1010.9 |
| 20260506011529 | 64 | 0 | 0.0 | 0.0 | 0.00 | 0.00 | 0.00 | 47 | 1010.9 |
| 20260506011012 | 65 | 0 | 0.0 | 0.0 | 0.00 | 0.00 | 0.00 | 40 | 1010.9 |
| 20260506010511 | 66 | 0 | 0.0 | 0.0 | 0.00 | 0.00 | 0.00 | 37 | 1010.9 |
| 20260506010033 | 67 | 0 | 0.0 | 0.0 | 0.00 | 0.00 | 0.00 | 38 | 1010.9 |
| 20260506005513 | 68 | 0 | 0.0 | 0.0 | 0.00 | 0.00 | 0.00 | 41 | 1011.0 |
| 20260506005010 | 69 | 0 | 0.0 | 0.0 | 0.00 | 0.00 | 0.00 | 40 | 1011.0 |
| 20260506004530 | 69 | 0 | 0.0 | 3.0 | 0.00 | 0.00 | 0.00 | 38 | 1010.9 |
| 20260506004011 | 69 | 0 | 0.0 | 3.0 | 0.00 | 0.00 | 0.00 | 31 | 1010.9 |
| 20260506003512 | 70 | 74 | 1.0 | 3.0 | 0.00 | 0.00 | 0.00 | 29 | 1011.0 |
| 20260506003028 | 70 | 0 | 0.0 | 3.0 | 0.00 | 0.00 | 0.00 | 25 | 1011.0 |
| 20260506002510 | 70 | 0 | 0.0 | 2.0 | 0.00 | 0.00 | 0.00 | 24 | 1011.1 |
| 20260506002013 | 69 | 140 | 1.0 | 4.0 | 0.00 | 0.00 | 0.00 | 25 | 1011.1 |
| 20260506001529 | 69 | 3 | 1.0 | 4.0 | 0.00 | 0.00 | 0.00 | 26 | 1011.2 |
| 20260506001010 | 69 | 0 | 1.0 | 7.0 | 0.00 | 0.00 | 0.00 | 32 | 1011.2 |
| 20260506000510 | 70 | 302 | 2.0 | 7.0 | 0.00 | 0.00 | 0.00 | 26 | 1011.3 |
| 20260506000031 | 69 | 118 | 3.0 | 7.0 | 0.00 | 0.00 | 0.00 | 30 | 1011.4 |
| 20260505235511 | 69 | 0 | 1.0 | 4.0 | 0.00 | 0.00 | 0.00 | 26 | 1011.4 |
| 20260505235010 | 69 | 0 | 1.0 | 6.0 | 0.00 | 0.00 | 0.00 | 28 | 1011.5 |
| 20260505234531 | 69 | 120 | 2.0 | 6.0 | 0.00 | 0.00 | 0.00 | 33 | 1011.5 |
| 20260505234009 | 69 | 110 | 3.0 | 6.0 | 0.00 | 0.00 | 0.00 | 26 | 1011.5 |
| 20260505233509 | 69 | 327 | 1.0 | 5.0 | 0.00 | 0.00 | 0.00 | 26 | 1011.7 |
| 20260505233029 | 70 | 309 | 1.0 | 5.0 | 0.00 | 0.00 | 0.00 | 29 | 1011.7 |
| 20260505232509 | 69 | 109 | 0.0 | 8.0 | 0.00 | 0.00 | 0.00 | 30 | 1011.8 |
| 20260505232011 | 69 | 118 | 2.0 | 9.0 | 0.00 | 0.00 | 0.00 | 28 | 1011.8 |
| 20260505231531 | 69 | 103 | 4.0 | 9.0 | 0.00 | 0.00 | 0.00 | 27 | 1011.9 |
| 20260505231010 | 69 | 114 | 4.0 | 8.0 | 0.00 | 0.00 | 0.00 | 30 | 1012.0 |
| 20260505230514 | 69 | 85 | 3.0 | 7.0 | 0.00 | 0.00 | 0.00 | 31 | 1012.0 |
| 20260505230030 | 69 | 309 | 2.0 | 9.0 | 0.00 | 0.00 | 0.00 | 26 | 1012.1 |
| 20260505225510 | 69 | 123 | 4.0 | 9.0 | 0.00 | 0.00 | 0.00 | 29 | 1012.1 |
| 20260505225012 | 69 | 144 | 4.0 | 9.0 | 0.00 | 0.00 | 0.00 | 28 | 1012.2 |
| 20260505224533 | 68 | 112 | 3.0 | 8.0 | 0.00 | 0.00 | 0.00 | 28 | 1012.3 |
| 20260505224012 | 68 | 143 | 3.0 | 10.0 | 0.00 | 0.00 | 0.00 | 26 | 1012.3 |
| 20260505223509 | 68 | 113 | 5.0 | 10.0 | 0.00 | 0.00 | 0.00 | 27 | 1012.4 |
| 20260505223037 | 68 | 108 | 4.0 | 10.0 | 0.00 | 0.00 | 0.00 | 32 | 1012.4 |
| 20260505222515 | 69 | 113 | 4.0 | 9.0 | 0.00 | 0.00 | 0.00 | 28 | 1012.5 |
| 20260505222011 | 68 | 124 | 2.0 | 9.0 | 0.00 | 0.00 | 0.00 | 27 | 1012.6 |
| 20260505221530 | 68 | 125 | 3.0 | 8.0 | 0.00 | 0.00 | 0.00 | 28 | 1012.7 |
| 20260505221013 | 68 | 105 | 3.0 | 8.0 | 0.00 | 0.00 | 0.00 | 25 | 1012.7 |
| 20260505220510 | 68 | 295 | 3.0 | 8.0 | 0.00 | 0.00 | 0.00 | 27 | 1012.8 |
| 20260505220047 | 68 | 307 | 2.0 | 7.0 | 0.00 | 0.00 | 0.00 | 26 | 1012.8 |
| 20260505215509 | 68 | 134 | 3.0 | 7.0 | 0.00 | 0.00 | 0.00 | 27 | 1012.8 |
| 20260505215009 | 68 | 274 | 4.0 | 7.0 | 0.00 | 0.00 | 0.00 | 29 | 1012.9 |
| 20260505214535 | 68 | 98 | 3.0 | 10.0 | 0.00 | 0.00 | 0.00 | 33 | 1013.0 |
| 20260505214010 | 68 | 87 | 3.0 | 10.0 | 0.00 | 0.00 | 0.00 | 25 | 1013.1 |
| 20260505213514 | 68 | 107 | 1.0 | 9.0 | 0.00 | 0.00 | 0.00 | 30 | 1013.2 |
| 20260505213034 | 68 | 115 | 3.0 | 10.0 | 0.00 | 0.00 | 0.00 | 26 | 1013.2 |
| 20260505212510 | 67 | 146 | 4.0 | 11.0 | 0.00 | 0.00 | 0.00 | 29 | 1013.3 |
| 20260505212010 | 66 | 0 | 3.0 | 11.0 | 0.00 | 0.00 | 0.00 | 29 | 1013.4 |
| 20260505211531 | 67 | 122 | 7.0 | 11.0 | 0.00 | 0.00 | 0.00 | 27 | 1013.4 |
| 20260505211012 | 67 | 176 | 5.0 | 12.0 | 0.00 | 0.00 | 0.00 | 38 | 1013.4 |
| 20260505210509 | 66 | 136 | 6.0 | 12.0 | 0.00 | 0.00 | 0.00 | 29 | 1013.5 |
| 20260505210033 | 67 | 125 | 6.0 | 13.0 | 0.00 | 0.00 | 0.00 | 29 | 1013.5 |
| 20260505205511 | 66 | 106 | 7.0 | 14.0 | 0.00 | 0.00 | 0.00 | 38 | 1013.5 |
| 20260505205014 | 66 | 130 | 5.0 | 14.0 | 0.00 | 0.00 | 0.00 | 29 | 1013.6 |
| 20260505204530 | 67 | 100 | 5.0 | 14.0 | 0.00 | 0.00 | 0.00 | 29 | 1013.6 |
| 20260505204011 | 66 | 269 | 3.0 | 11.0 | 0.00 | 0.00 | 0.00 | 28 | 1013.7 |
| 20260505203510 | 66 | 251 | 3.0 | 14.0 | 0.00 | 0.00 | 0.00 | 29 | 1013.8 |
| 20260505203028 | 66 | 105 | 4.0 | 15.0 | 0.00 | 0.00 | 0.00 | 31 | 1013.7 |
| 20260505202507 | 66 | 125 | 8.0 | 15.0 | 0.00 | 0.00 | 0.00 | 30 | 1013.7 |
| 20260505202011 | 66 | 97 | 2.0 | 12.0 | 0.00 | 0.00 | 0.00 | 35 | 1013.8 |
| 20260505201529 | 66 | 141 | 6.0 | 12.0 | 0.00 | 0.00 | 0.00 | 30 | 1013.9 |
| 20260505201010 | 66 | 130 | 4.0 | 11.0 | 0.00 | 0.00 | 0.00 | 35 | 1013.8 |
| 20260505200512 | 65 | 136 | 6.0 | 11.0 | 0.00 | 0.00 | 0.00 | 31 | 1014.0 |
| 20260505200036 | 65 | 123 | 3.0 | 10.0 | 0.00 | 0.00 | 0.00 | 31 | 1014.0 |
| 20260505195510 | 65 | 95 | 6.0 | 15.0 | 0.00 | 0.00 | 0.00 | 31 | 1014.1 |
| 20260505195015 | 65 | 139 | 7.0 | 15.0 | 0.00 | 0.00 | 0.00 | 31 | 1014.1 |
| 20260505194528 | 65 | 99 | 3.0 | 10.0 | 0.00 | 0.00 | 0.00 | 32 | 1014.1 |
| 20260505194010 | 64 | 92 | 3.0 | 8.0 | 0.00 | 0.00 | 0.00 | 30 | 1014.1 |
| 20260505193510 | 64 | 18 | 4.0 | 13.0 | 0.00 | 0.00 | 0.00 | 30 | 1014.3 |
| 20260505193028 | 64 | 125 | 2.0 | 13.0 | 0.00 | 0.00 | 0.00 | 32 | 1014.1 |
| 20260505192510 | 65 | 123 | 5.0 | 13.0 | 0.00 | 0.00 | 0.00 | 29 | 1014.2 |
| 20260505192011 | 64 | 0 | 2.0 | 10.0 | 0.00 | 0.00 | 0.00 | 31 | 1014.2 |
| 20260505191530 | 64 | 256 | 4.0 | 9.0 | 0.00 | 0.00 | 0.00 | 31 | 1014.2 |
| 20260505191014 | 63 | 154 | 2.0 | 8.0 | 0.00 | 0.00 | 0.00 | 30 | 1014.3 |
| 20260505190513 | 64 | 312 | 3.0 | 9.0 | 0.00 | 0.00 | 0.00 | 32 | 1014.3 |
| 20260505190029 | 63 | 135 | 2.0 | 11.0 | 0.00 | 0.00 | 0.00 | 33 | 1014.3 |
| 20260505185514 | 63 | 113 | 6.0 | 11.0 | 0.00 | 0.00 | 0.00 | 33 | 1014.5 |
| 20260505185011 | 63 | 303 | 3.0 | 11.0 | 0.00 | 0.00 | 0.00 | 31 | 1014.4 |
| 20260505184529 | 63 | 101 | 3.0 | 11.0 | 0.00 | 0.00 | 0.00 | 32 | 1014.5 |
| 20260505184009 | 63 | 360 | 4.0 | 11.0 | 0.00 | 0.00 | 0.00 | 36 | 1014.4 |
| 20260505183509 | 63 | 132 | 3.0 | 9.0 | 0.00 | 0.00 | 0.00 | 33 | 1014.4 |
| 20260505183035 | 63 | 123 | 5.0 | 9.0 | 0.00 | 0.00 | 0.00 | 35 | 1014.5 |
| 20260505182511 | 63 | 182 | 3.0 | 8.0 | 0.00 | 0.00 | 0.00 | 34 | 1014.5 |
| 20260505182012 | 63 | 101 | 2.0 | 8.0 | 0.00 | 0.00 | 0.00 | 31 | 1014.5 |
| 20260505181556 | 62 | 112 | 5.0 | 8.0 | 0.00 | 0.00 | 0.00 | 32 | 1014.6 |
| 20260505181010 | 62 | 52 | 3.0 | 11.0 | 0.00 | 0.00 | 0.00 | 35 | 1014.7 |
| 20260505180509 | 61 | 160 | 5.0 | 12.0 | 0.00 | 0.00 | 0.00 | 30 | 1014.7 |
| 20260505180028 | 62 | 110 | 6.0 | 13.0 | 0.00 | 0.00 | 0.00 | 31 | 1014.6 |
| 20260505175512 | 62 | 110 | 6.0 | 13.0 | 0.00 | 0.00 | 0.00 | 30 | 1014.6 |
| 20260505175011 | 62 | 96 | 5.0 | 11.0 | 0.00 | 0.00 | 0.00 | 34 | 1014.6 |
| 20260505174528 | 62 | 325 | 3.0 | 13.0 | 0.00 | 0.00 | 0.00 | 30 | 1014.7 |
| 20260505174011 | 62 | 105 | 3.0 | 13.0 | 0.00 | 0.00 | 0.00 | 33 | 1014.8 |